Wind_Speed
9 9 8 7 7 6 6 5 6 5 5 5 4 4 4 4 4 4 3 4 5 5 5 4 4 4 4 3 3 3 3 3 3 2 2 2 3 3 3 4 5 5 5
10 9 8 7 7 6 6 6 5 6 5 5 4 4 4 4 4 3 3 4 5 5 5 4 4 4 4 3 3 3 3 3 3 3 2 3 3 3 3 4 5 5 5
9 9 8 7 7 6 6 6 6 5 5 4 4 3 3 3 3 3 3 3 4 4 5 5 4 4 4 3 3 3 3 3 3 2 3 3 2 2 2 3 3 4 5
9 9 8 7 7 6 6 6 7 6 5 4 4 4 4 3 2 2 3 3 3 4 4 5 4 4 4 3 3 3 3 3 3 3 3 3 3 3 3 3 4 4 5
9 9 8 7 7 7 7 7 7 7 6 5 4 4 4 3 3 3 3 3 3 3 4 4 4 4 4 3 3 3 3 3 4 4 4 4 4 5 5 5 5 5 6
8 9 7 7 7 7 7 7 7 6 6 5 5 4 5 5 4 4 4 3 2 3 4 4 4 4 4 4 4 3 3 4 4 4 5 5 6 6 6 6 6 7 7
8 8 7 7 6 6 6 6 6 7 7 6 5 5 5 5 5 5 4 3 2 3 3 4 4 4 4 3 4 4 4 4 5 5 5 6 6 6 6 7 7 7 8
8 8 7 6 6 6 6 6 7 7 7 6 6 6 6 6 5 5 4 3 3 3 4 4 4 4 4 4 4 4 4 5 5 6 6 6 7 7 7 7 7 8 9
9 9 8 7 7 6 6 6 6 7 7 6 6 6 6 6 6 5 4 4 4 4 4 4 5 5 4 5 5 5 6 6 6 6 7 7 8 8 8 8 8 9 9
10 10 9 8 8 7 7 6 6 6 6 6 5 5 5 6 6 5 4 4 5 5 5 5 6 6 6 6 6 6 7 7 7 7 8 8 9 9 9 9 10 11 11
10 10 9 8 8 8 7 7 6 7 6 6 5 5 5 4 4 5 5 5 5 5 6 6 7 7 8 8 8 8 8 8 9 9 9 9 10 10 10 11 11 12 13
9 8 8 8 9 8 8 7 7 7 7 7 6 6 6 6 6 6 6 6 6 6 7 7 8 8 9 9 9 9 9 10 10 10 10 11 11 12 12 13 13 14 14
9 9 8 8 8 8 8 8 8 8 8 8 8 8 7 7 7 7 7 7 7 7 8 8 8 9 9 9 10 10 10 11 11 12 12 13 14 14 15 15 16 16 16
9 8 8 8 8 8 9 9 8 8 9 9 9 9 8 8 8 8 8 8 8 9 9 9 9 10 10 11 11 11 12 12 13 13 14 14 15 15 16 16 17 18 19
9 8 8 8 9 9 9 9 9 9 10 10 10 10 10 10 9 9 9 9 9 10 10 10 10 10 11 12 13 13 13 14 14 14 14 15 15 16 16 17 18 19 20
9 9 9 9 9 9 9 10 9 10 11 11 11 11 11 11 11 10 10 10 10 11 11 11 12 13 13 14 14 14 15 15 15 16 16 16 16 17 18 18 19 20 21
10 10 11 10 10 10 10 9 9 10 10 11 11 11 11 11 11 12 12 12 12 12 12 12 12 13 14 15 15 15 16 16 17 17 17 18 19 19 19 20 20 21 22
11 11 11 11 10 10 11 10 10 10 10 10 11 11 12 12 12 12 13 13 13 12 13 14 14 15 15 16 16 17 17 17 18 18 18 19 20 20 21 21 22 23 24
13 12 12 12 11 11 11 11 11 11 11 11 11 12 12 13 13 13 14 14 14 15 15 15 16 16 16 17 17 18 18 19 19 19 20 20 21 22 23 24 25 25 26
13 13 13 13 12 12 11 11 12 12 12 12 13 13 13 13 14 14 15 15 15 16 16 17 17 18 17 18 18 19 19 20 21 21 22 22 23 24 25 26 26 27 27
15 14 14 14 14 13 13 13 13 13 13 14 14 14 14 14 15 15 15 16 16 17 17 17 17 17 17 17 18 19 21 22 22 23 24 24 25 26 26 27 28 28 29
16 16 16 15 15 15 14 14 14 14 15 15 15 15 15 15 16 16 16 16 17 17 17 18 18 18 19 19 20 21 22 23 23 24 25 26 26 27 27 28 29 29 30
18 17 17 17 16 16 16 15 15 15 16 16 16 16 17 16 17 17 17 18 18 18 18 19 19 19 20 20 21 22 23 24 25 26 26 27 28 28 29 30 30 31 31
19 19 18 17 17 17 17 17 17 17 17 17 18 18 18 18 18 18 19 19 19 20 19 19 20 20 21 22 23 23 24 25 26 26 27 28 29 29 30 30 31 32 32
20 20 20 19 19 19 18 18 18 18 18 18 19 19 19 19 20 20 20 21 21 21 22 22 22 22 22 23 24 25 26 27 27 28 29 29 30 30 30 31 32 31 32
21 21 21 21 21 20 19 19 19 19 18 18 18 19 20 19 20 20 21 21 21 21 22 22 23 24 24 25 25 26 27 27 27 28 29 29 29 29 29 30 31 32 33
Wind_Direction
292 291 291 286 278 275 261 263 264 264 267 270 282 295 307 313 318 324 331 343 349 354 358 3 5 9 12 14 16 20 14 3 358 353 336 314 305 285 281 271 268 273 274
288 287 288 282 274 267 264 266 262 260 264 270 274 292 300 306 315 324 333 343 348 353 359 358 360 2 6 9 13 14 9 6 5 1 356 333 317 297 284 270 270 273 274
286 285 286 279 274 269 268 265 259 258 261 267 264 281 293 299 314 325 338 340 347 356 356 359 1 2 3 1 359 357 354 356 355 347 334 338 339 327 307 292 280 278 278
287 287 283 278 271 266 264 264 263 260 258 264 264 273 285 285 307 325 337 342 353 359 360 0 0 0 1 360 357 348 342 338 334 334 332 334 335 331 321 312 302 295 289
285 287 284 275 270 263 261 260 263 258 259 261 260 262 270 275 285 301 319 330 344 352 360 2 5 4 359 357 356 351 349 345 340 331 326 323 323 319 319 311 303 297 293
286 288 283 272 267 262 261 255 253 251 254 257 258 267 270 272 269 280 296 305 318 342 354 354 358 3 3 359 355 349 345 342 336 328 323 320 319 315 309 308 306 301 296
287 288 285 273 263 260 256 254 253 249 247 253 262 270 268 268 267 273 275 282 286 315 335 344 350 354 354 349 349 350 352 345 337 329 323 319 319 315 309 306 305 301 299
282 285 282 271 262 258 254 253 247 245 244 249 263 269 266 263 263 266 265 264 280 300 313 324 333 340 339 332 331 332 333 333 335 332 325 318 314 311 307 306 305 304 302
278 278 276 268 261 259 255 250 243 237 241 252 263 266 263 256 253 255 255 259 273 289 298 303 310 313 317 322 321 318 320 322 323 323 323 323 319 313 309 307 306 305 301
274 272 268 263 260 259 253 246 239 234 239 250 258 262 266 262 247 245 251 259 269 281 290 296 303 307 307 308 308 308 311 313 315 317 318 318 316 314 310 307 304 303 303
272 269 262 256 252 251 245 237 238 236 238 245 254 258 261 253 247 250 255 262 270 280 286 289 296 303 304 299 298 300 300 303 307 310 313 314 313 310 308 306 306 305 304
270 268 260 252 250 247 241 238 234 234 237 245 253 254 252 248 250 258 261 266 273 279 285 288 292 296 299 298 296 297 296 297 300 303 304 306 307 306 305 304 304 304 303
267 260 256 254 254 248 243 242 238 242 241 246 254 255 253 252 255 259 263 266 272 280 285 289 292 294 295 296 297 297 299 299 298 299 301 302 302 302 302 301 301 301 300
265 258 253 252 252 249 245 241 242 246 249 251 255 256 257 255 258 260 266 271 272 277 282 286 291 292 291 293 295 297 300 302 301 300 300 301 303 303 303 302 301 300 298
260 258 257 255 253 251 249 244 244 249 254 255 255 256 259 258 258 262 270 275 276 279 282 285 287 291 291 291 293 294 297 300 301 302 303 302 303 304 305 304 305 303 301
262 259 261 260 258 257 254 251 251 252 256 257 260 260 259 257 260 265 272 275 276 281 284 287 288 289 290 292 292 294 296 298 298 299 302 303 303 302 304 304 306 305 304
264 265 263 261 261 256 251 253 258 257 257 257 262 261 261 261 265 271 274 277 278 279 281 286 289 290 291 292 293 292 294 296 297 298 298 299 300 303 303 305 306 306 305
263 263 264 260 260 260 255 257 260 259 263 264 262 262 262 264 267 270 272 274 277 282 284 285 287 290 290 290 291 293 295 296 297 297 297 298 298 299 301 303 304 305 305
260 262 263 261 260 262 260 260 261 261 261 264 265 266 267 266 268 270 270 273 278 282 284 286 286 287 289 290 292 294 295 297 298 296 297 298 298 299 299 300 301 302 302
260 260 261 259 257 260 262 262 261 261 262 263 265 266 267 269 269 271 272 274 278 282 284 284 285 284 285 288 290 292 295 297 297 297 297 297 297 297 299 300 300 301 301
258 259 258 257 258 261 265 265 264 262 262 265 266 267 268 270 273 274 273 275 278 281 284 286 285 285 285 289 291 293 294 296 297 297 297 298 299 299 300 301 302 302 301
259 260 258 257 258 260 264 266 266 266 265 267 268 267 269 271 273 274 275 277 280 282 283 284 286 287 287 289 289 291 295 296 296 297 298 297 297 299 300 300 301 301 301
259 259 258 258 259 260 263 267 266 267 268 268 268 271 271 272 273 275 278 280 281 283 284 285 286 287 288 290 292 294 295 298 297 297 299 300 299 298 298 299 300 301 302
257 258 259 261 261 262 265 267 268 269 268 269 269 271 273 274 274 275 279 281 281 282 282 284 285 287 288 289 290 292 294 297 299 299 300 302 302 300 299 300 300 300 301
255 256 258 261 262 265 266 267 268 270 271 270 270 271 274 276 276 278 281 282 282 281 282 282 284 285 287 290 292 295 295 297 298 300 300 302 302 301 300 301 302 302 302
255 255 257 259 262 264 266 267 269 271 272 272 273 274 276 279 281 282 284 284 283 282 283 282 284 286 288 291 294 296 298 300 301 301 301 302 304 304 303 304 304 304 303
Height
5868 5869 5868 5868 5868 5868 5869 5870 5870 5871 5871 5872 5872 5872 5872 5872 5872 5872 5871 5871 5871 5870 5869 5869 5868 5868 5867 5867 5866 5866 5865 5865 5865 5865 5866 5866 5866 5866 5867 5867 5868 5868 5869
5867 5867 5867 5867 5867 5867 5868 5869 5869 5870 5871 5871 5871 5872 5872 5872 5872 5872 5871 5871 5871 5870 5870 5869 5868 5868 5867 5867 5866 5866 5866 5865 5865 5866 5866 5866 5866 5866 5866 5866 5867 5867 5868
5865 5866 5866 5866 5866 5866 5867 5867 5868 5869 5869 5870 5870 5871 5871 5871 5871 5871 5871 5871 5871 5870 5870 5869 5869 5868 5868 5867 5867 5866 5866 5866 5866 5866 5866 5866 5866 5866 5866 5866 5866 5866 5867
5863 5864 5864 5864 5865 5865 5865 5866 5867 5868 5869 5869 5870 5870 5871 5871 5871 5871 5871 5871 5870 5870 5870 5869 5869 5868 5868 5867 5867 5866 5866 5866 5866 5865 5865 5866 5865 5866 5866 5866 5866 5866 5866
5862 5862 5862 5863 5863 5864 5864 5865 5866 5867 5867 5868 5869 5870 5870 5870 5871 5871 5871 5871 5871 5871 5870 5870 5869 5869 5868 5868 5867 5867 5866 5866 5866 5865 5865 5865 5865 5865 5865 5865 5865 5865 5865
5860 5860 5861 5861 5862 5862 5863 5864 5864 5865 5866 5867 5868 5869 5869 5870 5870 5870 5870 5870 5870 5871 5870 5870 5869 5869 5868 5868 5867 5867 5866 5866 5866 5865 5865 5865 5865 5864 5864 5864 5864 5864 5864
5859 5859 5859 5859 5860 5861 5862 5862 5863 5864 5865 5866 5867 5867 5868 5869 5869 5869 5870 5870 5870 5870 5870 5870 5869 5869 5868 5868 5868 5867 5867 5866 5866 5865 5865 5864 5864 5864 5864 5863 5863 5862 5862
5858 5858 5858 5858 5859 5860 5861 5861 5862 5863 5864 5865 5866 5866 5867 5867 5868 5868 5869 5869 5870 5870 5870 5870 5869 5869 5868 5868 5868 5867 5867 5866 5866 5865 5864 5864 5863 5863 5862 5862 5862 5861 5861
5856 5856 5856 5857 5858 5859 5859 5860 5861 5862 5863 5864 5864 5865 5865 5866 5866 5867 5868 5868 5869 5869 5869 5869 5869 5869 5868 5868 5867 5867 5867 5866 5865 5865 5864 5863 5862 5861 5861 5860 5860 5860 5859
5854 5854 5855 5855 5856 5857 5858 5858 5860 5861 5862 5862 5863 5863 5864 5864 5865 5866 5866 5867 5867 5868 5868 5868 5868 5868 5867 5867 5867 5866 5866 5865 5864 5864 5863 5862 5861 5860 5859 5858 5858 5857 5857
5852 5852 5853 5853 5854 5855 5856 5857 5858 5859 5860 5861 5862 5863 5863 5864 5864 5865 5866 5866 5866 5866 5867 5867 5867 5866 5866 5866 5865 5865 5864 5864 5863 5863 5862 5861 5860 5859 5858 5857 5856 5855 5854
5850 5850 5851 5852 5853 5854 5855 5856 5857 5858 5859 5860 5860 5861 5862 5862 5863 5864 5864 5865 5865 5865 5865 5865 5865 5865 5864 5864 5864 5863 5863 5862 5862 5861 5860 5859 5858 5857 5855 5854 5853 5852 5851
5848 5849 5849 5850 5851 5852 5853 5854 5855 5856 5857 5858 5859 5859 5860 5861 5861 5862 5863 5863 5863 5863 5863 5863 5863 5863 5862 5862 5862 5861 5860 5860 5859 5859 5858 5856 5855 5854 5853 5851 5850 5849 5847
5846 5847 5848 5848 5849 5850 5851 5852 5853 5854 5855 5856 5857 5857 5858 5859 5859 5860 5861 5861 5861 5861 5862 5861 5861 5861 5860 5860 5859 5859 5858 5857 5857 5856 5855 5853 5852 5851 5849 5848 5846 5845 5843
5845 5845 5846 5847 5847 5848 5849 5850 5851 5852 5853 5854 5854 5855 5856 5857 5857 5858 5858 5859 5859 5859 5859 5859 5859 5858 5858 5857 5857 5856 5855 5854 5853 5852 5851 5850 5848 5847 5845 5844 5842 5840 5839
5843 5844 5844 5845 5846 5846 5847 5848 5849 5850 5850 5851 5852 5852 5853 5854 5855 5855 5856 5856 5856 5856 5856 5856 5856 5855 5855 5854 5853 5853 5852 5851 5850 5849 5847 5846 5845 5843 5841 5840 5838 5836 5834
5841 5842 5842 5843 5844 5844 5845 5846 5846 5847 5847 5848 5849 5850 5850 5851 5852 5852 5853 5853 5853 5853 5853 5853 5852 5852 5851 5850 5850 5849 5848 5847 5846 5844 5843 5842 5840 5839 5837 5835 5833 5831 5828
5839 5839 5840 5840 5841 5842 5842 5843 5844 5844 5845 5845 5846 5847 5848 5848 5849 5849 5850 5850 5850 5850 5849 5849 5849 5848 5847 5846 5846 5845 5843 5842 5841 5840 5838 5837 5835 5834 5832 5830 5828 5825 5823
5836 5836 5837 5838 5838 5839 5840 5840 5841 5842 5842 5843 5844 5844 5845 5845 5846 5846 5846 5846 5846 5846 5845 5845 5845 5844 5843 5842 5841 5840 5839 5838 5836 5835 5833 5832 5830 5828 5826 5824 5822 5819 5817
5832 5833 5834 5834 5835 5836 5836 5837 5838 5839 5839 5840 5840 5841 5842 5842 5842 5842 5842 5842 5842 5842 5841 5840 5840 5839 5838 5838 5837 5835 5834 5833 5831 5830 5828 5826 5824 5822 5820 5818 5815 5813 5810
5829 5830 5830 5831 5832 5833 5833 5834 5834 5835 5836 5836 5837 5837 5838 5838 5838 5838 5838 5838 5838 5837 5837 5836 5835 5834 5834 5833 5832 5830 5829 5827 5826 5824 5822 5820 5818 5816 5814 5811 5808 5806 5803
5825 5826 5827 5827 5828 5829 5830 5830 5831 5831 5832 5832 5832 5833 5833 5833 5833 5833 5833 5833 5833 5832 5832 5831 5830 5829 5828 5827 5826 5825 5823 5821 5820 5818 5816 5814 5811 5809 5807 5804 5801 5798 5795
5820 5821 5822 5823 5824 5825 5825 5826 5827 5827 5827 5828 5828 5828 5828 5829 5829 5829 5829 5828 5828 5827 5827 5826 5825 5824 5823 5822 5820 5819 5817 5815 5813 5811 5809 5806 5804 5801 5799 5796 5793 5790 5787
5815 5817 5818 5819 5820 5820 5821 5821 5822 5822 5823 5823 5823 5824 5824 5824 5824 5824 5823 5823 5822 5822 5821 5820 5819 5819 5817 5816 5814 5812 5810 5809 5806 5804 5802 5799 5796 5794 5791 5788 5785 5782 5778
5810 5811 5813 5814 5815 5815 5816 5816 5817 5817 5817 5818 5818 5818 5818 5818 5818 5818 5818 5817 5816 5816 5815 5814 5813 5812 5811 5809 5808 5806 5804 5801 5799 5797 5795 5792 5789 5786 5783 5780 5776 5773 5770
5804 5805 5807 5808 5809 5810 5811 5811 5812 5812 5813 5813 5813 5813 5813 5813 5813 5813 5812 5811 5810 5810 5809 5808 5807 5806 5804 5803 5801 5799 5797 5794 5792 5790 5787 5784 5781 5778 5775 5772 5768 5765 5761